Regional Weather Roundup
Issued by NWS

Home | Current Version | Previous Version | Graphics & Text | Print | Product List | Glossary On
Versions: 1 2 3 4 5 6 7 8 9 10 11 12 13 14 15 16 17 18 19 20 21 22 23 24 25 26 27 28 29 30 31 32 33 34 35 36 37 38 39 40 41 42 43 44 45 46 47 48 49 50
000
ASUS43 KMPX 170801
RWRMN
WEATHER ROUNDUP FOR MINNESOTA
NATIONAL WEATHER SERVICE TWIN CITIES/CHANHASSEN MN
200 AM CST FRI NOV 17 2017


NOTE: "FAIR" INDICATES FEW OR NO CLOUDS BELOW 12,000 FEET WITH NO
SIGNIFICANT WEATHER AND/OR OBSTRUCTIONS TO VISIBILITY. N/A MEANS
CURRENT SKY AND/OR WEATHER CONDITIONS ARE NOT AVAILABLE.

MNZ060>063-068>070-170900-
   Twin Cities Metro

CITY           SKY/WX    TMP DP  RH WIND       PRES   REMARKS
TWIN CITIES    CLOUDY    35  29  78 S16G24    29.89F WCI  25
ST PAUL        CLOUDY    35  29  78 SE17G28   29.91F WCI  25
CRYSTAL        CLOUDY    35  26  69 SE16G29   29.86F WCI  25
BLAINE         CLOUDY    36  30  80 SE16G26   29.86F
LAKEVILLE      PTCLDY    34  28  80 SE15G24   29.88F WCI  24
EDEN PRAIRIE   CLOUDY    36  28  73 SE15G23   29.86F
SOUTH ST PAUL  CLOUDY    36  28  75 SE13      29.90F
LAKE ELMO      MOCLDY    34  30  86 SE13G20   29.91F WCI  25
$$
MNZ001>005-007-008-013>017-022>024-027-028-170900-
   Northwest Minnesota

CITY           SKY/WX    TMP DP  RH WIND       PRES   REMARKS
BEMIDJI        CLOUDY    31  26  80 S14       29.70R WCI  21
HALLOCK        LGT SNOW  32  30  93 S20       29.57F WCI  20
ROSEAU         MOCLDY    32  27  80 S14       29.63F WCI  22
WARROAD        CLOUDY    30  27  86 S15G21    29.64F WCI  19
CROOKSTON      PTCLDY    34  28  80 SW14G22   29.65S WCI  24
FOSSTON        CLOUDY    30  25  80 S13       29.65S WCI  20
DETROIT LAKES  CLOUDY    32  28  86 SE10      29.66F WCI  24
MOORHEAD       CLOUDY    34  27  75 S13       29.65F WCI  25
PARK RAPIDS    CLOUDY    32  26  78 S15       29.70S WCI  22
MAHNOMEN       PTSUNNY   32  26  78 S16G25    29.64R WCI  21
$$
MNZ006-009>011-018-025>026-170900-
   North Central Minnesota

CITY           SKY/WX    TMP DP  RH WIND       PRES   REMARKS
BAUDETTE       CLOUDY    30  24  78 S14       29.67S WCI  19
FLAG ISLAND    CLOUDY    30  25  80 S24G30    29.64F WCI  16
INTL FALLS     CLOUDY    30  23  75 SE12G21   29.73F WCI  20
WASKISH        CLOUDY    30  25  80 S12G17    29.69R WCI  21
BIG FORK       CLOUDY    30  25  80 SE12G22   29.73F WCI  21
LONGVILLE      CLOUDY    32  27  80 SE14G23   29.72F WCI  22
GRAND RAPIDS   CLOUDY    30  25  81 SE18G24   29.76F WCI  18
CRANE LAKE     CLOUDY    28  25  86 SE8       29.81F WCI  20
ORR            CLOUDY    28  23  80 SE12G21   29.75F WCI  18
COOK           CLOUDY    28  25  86 SE10G18   29.78F WCI  19
WALKER         PTSUNNY   31  26  78 S13G24    29.71S WCI  22
$$
MNZ012-019>021-037-170900-
   Northeast Minnesota

CITY           SKY/WX    TMP DP  RH WIND       PRES   REMARKS
DULUTH         CLOUDY    30  26  85 SE14      29.86F WCI  19
ELY            CLOUDY    28  27  93 SE15G23   29.83F WCI  17
HIBBING        CLOUDY    28  24  85 SE12      29.80F WCI  18
EVELETH        CLOUDY    28  23  80 SE12G20   29.83F WCI  18
DULUTH HARBOR  CLOUDY    36  28  75 SE6       29.91F
TWO HARBORS    CLOUDY    34  28  80 E7        29.89F WCI  28
SILVER BAY     CLOUDY    32  27  80 SE7       29.92F WCI  26
GRAND MARAIS     N/A     33  30  88 E13G23    30.01F WCI  24
G MARAIS ARPRT LGT SNOW  25  21  86 SE9G16    29.94F WCI  15
$$
MNZ029>031-032-039>041-046>048-054>057-064-170900-
   West Central Minnesota

CITY           SKY/WX    TMP DP  RH WIND       PRES   REMARKS
FERGUS FALLS   CLOUDY    34  27  75 S16G23    29.67R WCI  23
WHEATON        CLOUDY    34  27  75 SE15G21   29.62F WCI  24
MORRIS         CLOUDY    34  28  80 SE22G31   29.63R WCI  22
ALEXANDRIA     CLOUDY    34  28  79 S21       29.68F WCI  22
ELBOW LAKE     FAIR      33  28  81 SE23G29   29.64F HAZE    WCI  21
WADENA         CLOUDY    32  27  80 SE15      29.68F WCI  22
GLENWOOD       CLOUDY    36  28  75 S22G33    29.69F
APPLETON       CLOUDY    37  28  70 SE16G29   29.63F
BENSON         CLOUDY    36  28  75 S18G29    29.66F
ORTONVILLE     CLOUDY    36  27  69 MISG      29.59S
MADISON        CLOUDY    39  30  70 S17       29.60F
WILLMAR        FAIR      36  30  80 SE23G30   29.71F
$$
MNZ033>034-036-042>043-049>051-058-059-170900-
   Central Minnesota

CITY           SKY/WX    TMP DP  RH WIND       PRES   REMARKS
ST CLOUD       CLOUDY    34  28  79 SE20      29.77F WCI  23
SAUK CENTRE    CLOUDY    33  28  85 SE17G29   29.70F WCI  21
PAYNESVILLE    CLOUDY    34  30  85 SE22G30   29.73F WCI  22
AITKIN         CLOUDY    30  25  80 SE17G28   29.76F WCI  18
PINE RIVER     CLOUDY    30  25  80 S13G25    29.76F WCI  20
BRAINERD       CLOUDY    34  26  72 SE10G22   29.74F WCI  26
STAPLES        CLOUDY    32  27  80 SE14      29.72R WCI  22
LONG PRAIRIE   MOCLDY    32  28  86 E18G25    29.70F WCI  20
LITTLE FALLS   CLOUDY    34  23  64 SE18G28   29.73F WCI  23
LITCHFIELD     CLOUDY    36  30  80 SE17G26   29.75F
BUFFALO        CLOUDY    35  28  75 SE13G22   29.82F WCI  26
MAPLE LAKE     CLOUDY    35  30  82 SE15G23   29.80F WCI  25
HUTCHINSON     CLOUDY    35  30  83 SE20G26   29.78F WCI  24
$$
MNZ037-044-045-052-053-170900-
   East Central Minnesota

CITY           SKY/WX    TMP DP  RH WIND       PRES   REMARKS
PRINCETON      LGT RAIN  36  28  75 SE16G26   29.82F
MORA           CLOUDY    34  28  80 S10G23    29.86F WCI  26
CAMBRIDGE      CLOUDY    36  27  69 SE12G21   29.85F
RUSH CITY      CLOUDY    33  27  79 SE15G25   29.86F WCI  23
MOOSE LAKE     CLOUDY    32  27  80 S9        29.83F WCI  24
HINCKLEY       PTSUNNY   34  28  80 SE15      29.86F WCI  24
CLOQUET        CLOUDY    32  25  74 SE10G16   29.84F WCI  24
MCGREGOR       CLOUDY    32  28  86 S15       29.81F WCI  22
$$
MNZ071>073-080-081-089-090-097-098-170900-
   Southwest Minnesota

CITY           SKY/WX    TMP DP  RH WIND       PRES   REMARKS
MONTEVIDEO     CLOUDY    36  28  75 S15G21    29.65F
GRANITE FALLS  PTCLDY    37  31  76 SE20      29.68F
CANBY          CLOUDY    41  30  65 SE12G20   29.61F
MARSHALL       CLOUDY    38  28  67 S25G33    29.61F
REDWOOD FALLS  CLOUDY    35  27  72 SE22G31   29.71F WCI  23
OLIVIA         CLOUDY    34  30  86 SE17G28   29.70F WCI  23
PIPESTONE      CLOUDY    36  28  75 S22       29.62F
WINDOM           N/A     37  21  52 SE23G30   29.71F
WORTHINGTON    CLOUDY    34  28  79 S22G28    29.68F WCI  22
JACKSON        CLOUDY    34  28  80 SE17G30   29.75F WCI  23
SLAYTON        CLOUDY    34  29  82 SE22G30   29.66F WCI  22
$$
MNZ065>067-074>077-082>085-091>093-170900-
   South Central Minnesota

CITY           SKY/WX    TMP DP  RH WIND       PRES   REMARKS
MANKATO        CLOUDY    34  28  79 S21G26    29.82F WCI  22
NEW ULM        CLOUDY    36  27  69 S20G28    29.78F
ST JAMES       CLOUDY    34  28  80 SE20G28   29.79F WCI  22
FAIRMONT       CLOUDY    33  28  81 S23G30    29.80F WCI  21
GLENCOE        CLOUDY    36  30  80 SE20G28   29.80F
FARIBAULT      CLOUDY    36  28  75 SE14G21   29.89F
OWATONNA       CLOUDY    34  28  80 SE26G33   29.87F WCI  21
WASECA         CLOUDY    34  30  86 SE21G28   29.87F WCI  22
ALBERT LEA     CLOUDY    34  27  75 S18G26    29.88F WCI  23
$$
MNZ078>079-086>088-094>096-170900-
   Southeast Minnesota

CITY           SKY/WX    TMP DP  RH WIND       PRES   REMARKS
ROCHESTER      CLOUDY    32  28  85 SE20G26   29.94F WCI  20
RED WING       CLOUDY    36  27  69 SE14G22   29.96F
STANTON        CLOUDY    36  29  76 SE18G26   29.89F
DODGE CENTER   CLOUDY    32  28  86 SE18      29.93F WCI  20
WINONA         CLOUDY    34  28  80 SE8       30.03F WCI  27
AUSTIN         CLOUDY    32  28  86 S14G22    29.92F WCI  22
PRESTON        CLOUDY    31  27  85 SE16G24   29.97F WCI  20
$$
ABBREVIATIONS USED IN REMARKS
   TC - TEMPERATURES IN CELSIUS
  WCI - WIND CHILL INDEX
   HX - HEAT INDEX
  VSB - VISIBILITY
$$




USA.gov is the U.S. government's official web portal to all federal, state and local government web resources and services.